Volver al catálogo

TIANQI 33

ActivoComunicacionesLEO
NORAD 62365·PAYLOAD·🇨🇳 China

Lanzado Dec 19, 2024 desde Yellow Sea Launch Area

Loading…

Próximos Pases (próximas 24 horas)

TLE

ActualizadoSource: Space-Track

Época: Sep 14, 2026, 11:43 UTC

1 62365U 24245A   26257.48823991 -.00000026  00000-0  70588-4 0  9996
2 62365  44.9833 284.6716 0005736  72.9242 287.2219 13.99232209 88867

Sigue TIANQI 33 en tiempo real con AllMySat

Download on the App Store